Weather History for Provincetown, MA

Change the Weather History Date:

Sunday, November 3, 2013

  Actual Average Record
Temperature  
Mean Temperature 48 °F -  
Max Temperature 53 °F 52 °F 66 °F (1951)
Min Temperature 42 °F 42 °F 26 °F (2008)
Degree Days  
Heating Degree Days 18    
Moisture  
Dew Point 37 °F    
Average Humidity 70    
Maximum Humidity 87    
Minimum Humidity 46    
Precipitation  
Precipitation 0.04 in - - ()
Sea Level Pressure  
Sea Level Pressure 30.05 in    
Wind  
Wind Speed 15 mph (NNE)    
Max Wind Speed 26 mph    
Max Gust Speed 32 mph    
Visibility 10 miles    
Events      
Averages and records for this station are not official NWS values.
T = Trace of Precipitation, MM = Missing Value Source: NWS Daily Summary

Daily Weather History Graph

Daily Weather History Graph

Search for Another Location

Airport:

Trip Planner

Search our weather history database for the weather conditions in past years. The results will help you decide how hot, cold, wet, or windy it might be!

Date:

Astronomy

Nov. 03, 2013 Rise Set
Actual Time 6:16 AM EST 4:31 PM EST
Civil Twilight 5:47 AM EST 5:01 PM EST
Nautical Twilight 5:13 AM EST 5:34 PM EST
Astronomical Twilight 4:41 AM EST 6:06 PM EST
Moon 6:16 AM EST (11/3) 4:43 PM EST (11/3)
Length of Visible Light 11h 14m
Length of Day
10h 15m
Waxing Crescent, 0% of the Moon is Illuminated
Nov 3
Waxing Crescent
Nov 10
First Quarter
Nov 17
Full
Nov 25
Last Quarter
Dec 2
New

Hourly Weather History & Observations

Time (EST) Temp. Windchill Dew Point Humidity Pressure Visibility Wind Dir Wind Speed Gust Speed Precip Events Conditions
12:15 AM 53.6 °F - 46.4 °F 77% 29.71 in 10.0 mi North 10.4 mph 16.1 mph N/A   Clear
12:35 AM 53.6 °F - 46.4 °F 77% 29.72 in 10.0 mi North 9.2 mph - N/A   Clear
12:55 AM 53.6 °F - 46.4 °F 77% 29.73 in 10.0 mi North 9.2 mph - N/A   Clear
1:15 AM 53.6 °F - 48.2 °F 82% 29.74 in 10.0 mi North 9.2 mph - N/A   Clear
1:35 AM 53.6 °F - 46.4 °F 77% 29.74 in 10.0 mi North 10.4 mph - N/A   Scattered Clouds
1:55 AM 53.6 °F - 48.2 °F 82% 29.75 in 10.0 mi NNW 8.1 mph - N/A   Mostly Cloudy
1:15 AM 53.6 °F - 48.2 °F 82% 29.76 in 10.0 mi NNW 13.8 mph 18.4 mph N/A   Mostly Cloudy
1:35 AM 53.6 °F - 46.4 °F 77% 29.77 in 10.0 mi North 16.1 mph 21.9 mph N/A   Mostly Cloudy
1:55 AM 53.6 °F - 46.4 °F 77% 29.78 in 10.0 mi North 15.0 mph 19.6 mph N/A   Overcast
2:15 AM 53.6 °F - 48.2 °F 82% 29.78 in 10.0 mi NNE 16.1 mph 23.0 mph N/A   Overcast
2:35 AM 53.6 °F - 48.2 °F 82% 29.78 in 10.0 mi NNE 13.8 mph 19.6 mph N/A   Mostly Cloudy
2:55 AM 51.8 °F - 46.4 °F 82% 29.79 in 10.0 mi NNE 18.4 mph 23.0 mph N/A   Overcast
3:15 AM 51.8 °F - 46.4 °F 82% 29.80 in 10.0 mi NNE 15.0 mph 24.2 mph N/A   Overcast
3:35 AM 50.0 °F - 44.6 °F 82% 29.83 in 10.0 mi NNE 20.7 mph 26.5 mph N/A   Overcast
3:55 AM 50.0 °F - 44.6 °F 82% 29.84 in 10.0 mi NNE 19.6 mph 25.3 mph N/A   Overcast
4:15 AM 48.2 °F - 44.6 °F 87% 29.85 in 10.0 mi NNE 17.3 mph 26.5 mph N/A   Overcast
4:35 AM 48.2 °F - 42.8 °F 82% 29.86 in 10.0 mi NNE 17.3 mph 26.5 mph N/A   Overcast
4:55 AM 48.2 °F - 42.8 °F 82% 29.86 in 10.0 mi NNE 19.6 mph 25.3 mph N/A   Overcast
5:15 AM 48.2 °F - 42.8 °F 82% 29.88 in 10.0 mi NNE 17.3 mph 23.0 mph N/A   Overcast
5:35 AM 48.2 °F - 42.8 °F 82% 29.90 in 10.0 mi NNE 18.4 mph 26.5 mph N/A   Overcast
5:55 AM 48.2 °F - 42.8 °F 82% 29.91 in 10.0 mi NNE 17.3 mph 25.3 mph N/A   Overcast
6:15 AM 48.2 °F - 42.8 °F 82% 29.91 in 10.0 mi NNE 18.4 mph 25.3 mph N/A   Overcast
6:35 AM 46.4 °F 39.5 °F 42.8 °F 87% 29.93 in 10.0 mi NNE 17.3 mph 24.2 mph N/A   Overcast
6:55 AM 46.4 °F 38.5 °F 42.8 °F 87% 29.95 in 9.0 mi North 21.9 mph 26.5 mph N/A   Overcast
7:15 AM 46.4 °F 39.2 °F 42.8 °F 87% 29.96 in 8.0 mi North 18.4 mph 25.3 mph N/A   Overcast
7:35 AM 46.4 °F 39.0 °F 42.8 °F 87% 29.98 in 5.0 mi NNE 19.6 mph 27.6 mph 0.01 in   Overcast
7:55 AM 46.4 °F 38.3 °F 42.8 °F 87% 29.99 in 10.0 mi NNE 23.0 mph 32.2 mph 0.01 in   Overcast
8:15 AM 46.4 °F 39.0 °F 42.8 °F 87% 30.00 in 9.0 mi NNE 19.6 mph 28.8 mph N/A   Overcast
8:35 AM 44.6 °F 35.3 °F 41.0 °F 87% 30.01 in 10.0 mi NNE 26.5 mph 32.2 mph 0.01 in   Overcast
8:55 AM 44.6 °F 36.6 °F 39.2 °F 81% 30.02 in 10.0 mi NNE 19.6 mph 31.1 mph 0.01 in   Overcast
9:15 AM 44.6 °F 36.9 °F 39.2 °F 81% 30.03 in 10.0 mi NNE 18.4 mph 28.8 mph N/A   Overcast
9:35 AM 44.6 °F 36.1 °F 39.2 °F 81% 30.04 in 10.0 mi NNE 21.9 mph 28.8 mph N/A   Overcast
9:55 AM 44.6 °F 37.4 °F 37.4 °F 76% 30.06 in 10.0 mi NNE 16.1 mph 28.8 mph N/A   Overcast
10:15 AM 44.6 °F 36.6 °F 37.4 °F 76% 30.07 in 10.0 mi NNE 19.6 mph 26.5 mph N/A   Overcast
10:35 AM 44.6 °F 37.2 °F 37.4 °F 76% 30.08 in 10.0 mi NNE 17.3 mph 26.5 mph N/A   Overcast
10:55 AM 44.6 °F 36.1 °F 37.4 °F 76% 30.09 in 10.0 mi NNE 21.9 mph 25.3 mph N/A   Overcast
11:15 AM 44.6 °F 36.9 °F 35.6 °F 71% 30.09 in 10.0 mi NNE 18.4 mph 27.6 mph N/A   Overcast
11:35 AM 44.6 °F 36.9 °F 35.6 °F 71% 30.09 in 10.0 mi NNE 18.4 mph 26.5 mph N/A   Overcast
11:55 AM 44.6 °F 36.9 °F 35.6 °F 71% 30.09 in 10.0 mi NNE 18.4 mph 25.3 mph N/A   Overcast
12:15 PM 42.8 °F 34.5 °F 35.6 °F 76% 30.09 in 10.0 mi NE 18.4 mph 26.5 mph N/A   Overcast
12:35 PM 44.6 °F 37.2 °F 35.6 °F 71% 30.10 in 10.0 mi NNE 17.3 mph 25.3 mph N/A   Overcast
12:55 PM 44.6 °F 37.2 °F 33.8 °F 66% 30.11 in 10.0 mi NNE 17.3 mph 24.2 mph N/A   Overcast
1:15 PM 44.6 °F 37.2 °F 32.0 °F 61% 30.12 in 10.0 mi NNE 17.3 mph 23.0 mph N/A   Overcast
1:35 PM 44.6 °F 37.4 °F 30.2 °F 57% 30.12 in 10.0 mi NNE 16.1 mph 24.2 mph N/A   Overcast
1:55 PM 44.6 °F 36.9 °F 32.0 °F 61% 30.13 in 10.0 mi NNE 18.4 mph 24.2 mph N/A   Overcast
2:15 PM 44.6 °F 37.2 °F 32.0 °F 61% 30.13 in 10.0 mi NNE 17.3 mph 23.0 mph N/A   Overcast
2:35 PM 44.6 °F 37.2 °F 30.2 °F 57% 30.14 in 10.0 mi NNE 17.3 mph 24.2 mph 0.01 in   Overcast
2:55 PM 44.6 °F 37.2 °F 30.2 °F 57% 30.15 in 10.0 mi NNE 17.3 mph 24.2 mph 0.01 in   Overcast
3:15 PM 42.8 °F 35.4 °F 30.2 °F 61% 30.16 in 10.0 mi NNE 15.0 mph 25.3 mph N/A   Overcast
3:35 PM 42.8 °F 35.8 °F 30.2 °F 61% 30.17 in 10.0 mi NNE 13.8 mph 21.9 mph N/A   Overcast
3:55 PM 42.8 °F 35.8 °F 28.4 °F 57% 30.18 in 10.0 mi North 13.8 mph 20.7 mph N/A   Mostly Cloudy
4:15 PM 42.8 °F 35.8 °F 28.4 °F 57% 30.18 in 10.0 mi North 13.8 mph 23.0 mph N/A   Overcast
4:35 PM 42.8 °F 35.4 °F 28.4 °F 57% 30.20 in 10.0 mi North 15.0 mph 19.6 mph N/A   Overcast
4:55 PM 42.8 °F 35.8 °F 30.2 °F 61% 30.20 in 10.0 mi North 13.8 mph 20.7 mph N/A   Mostly Cloudy
5:15 PM 42.8 °F 36.6 °F 30.2 °F 61% 30.21 in 10.0 mi North 11.5 mph 17.3 mph N/A   Mostly Cloudy
5:35 PM 42.8 °F 36.2 °F 28.4 °F 57% 30.23 in 10.0 mi NNE 12.7 mph 17.3 mph N/A   Overcast
5:55 PM 42.8 °F 35.8 °F 28.4 °F 57% 30.24 in 10.0 mi NNE 13.8 mph 21.9 mph N/A   Overcast
6:15 PM 44.6 °F 38.1 °F 28.4 °F 53% 30.25 in 10.0 mi NNE 13.8 mph 18.4 mph N/A   Overcast
6:35 PM 44.6 °F 38.8 °F 28.4 °F 53% 30.26 in 10.0 mi NNE 11.5 mph 20.7 mph N/A   Overcast
6:55 PM 44.6 °F 38.8 °F 28.4 °F 53% 30.26 in 10.0 mi NNE 11.5 mph 16.1 mph N/A   Overcast
7:15 PM 44.6 °F 38.4 °F 28.4 °F 53% 30.26 in 10.0 mi NNE 12.7 mph 19.6 mph N/A   Overcast
7:35 PM 44.6 °F 39.7 °F 26.6 °F 49% 30.27 in 10.0 mi North 9.2 mph 17.3 mph N/A   Overcast
7:55 PM 44.6 °F 38.8 °F 26.6 °F 49% 30.27 in 10.0 mi NNE 11.5 mph 18.4 mph N/A   Overcast
8:15 PM 44.6 °F 38.8 °F 24.8 °F 46% 30.28 in 10.0 mi NNE 11.5 mph 18.4 mph N/A   Overcast
8:35 PM 44.6 °F 38.4 °F 24.8 °F 46% 30.29 in 10.0 mi North 12.7 mph 19.6 mph 0.01 in   Overcast
8:55 PM 44.6 °F 38.1 °F 24.8 °F 46% 30.30 in 10.0 mi North 13.8 mph 19.6 mph 0.01 in   Mostly Cloudy
9:15 PM 44.6 °F 36.4 °F 28.4 °F 53% 30.31 in 10.0 mi NNE 20.7 mph 27.6 mph N/A   Mostly Cloudy
9:35 PM 44.6 °F 36.6 °F 30.2 °F 57% 30.32 in 10.0 mi North 19.6 mph 26.5 mph N/A   Overcast
9:55 PM 42.8 °F 34.5 °F 28.4 °F 57% 30.33 in 10.0 mi North 18.4 mph 24.2 mph N/A   Overcast
10:15 PM 42.8 °F 34.3 °F 28.4 °F 57% 30.33 in 10.0 mi NNE 19.6 mph 24.2 mph N/A   Overcast
10:35 PM 42.8 °F 34.8 °F 26.6 °F 53% 30.34 in 10.0 mi NNE 17.3 mph 27.6 mph N/A   Overcast
10:55 PM 42.8 °F 35.1 °F 26.6 °F 53% 30.35 in 10.0 mi NNE 16.1 mph 24.2 mph N/A   Overcast